Stations météo

réclame
Mon MeteoGroup
Abisko, Suède (2022): Température de l'air & dewpoint: 24.09.2020 05:00:00 - 30.09.2020 05:00:00 (CEST)Abisko, Suède (2022): Vitesse du vent & gusts: 24.09.2020 05:00:00 - 30.09.2020 05:00:00 (CEST)Abisko, Suède (2022): Direction du vent: 24.09.2020 05:00:00 - 30.09.2020 05:00:00 (CEST)Abisko, Suède (2022): reduced air pressure: 24.09.2020 05:00:00 - 30.09.2020 05:00:00 (CEST)Abisko, Suède (2022): visibility: 24.09.2020 05:00:00 - 30.09.2020 05:00:00 (CEST)Abisko, Suède (2022): Quantités de précipitations: 24.09.2020 05:00:00 - 30.09.2020 05:00:00 (CEST)
Date & Time tt [°C] td [°C] ff [km/h] ff [knt] fx [km/h] fx [knt] dd ppp [hPa] vv [km] rr [mm]
30.09.2020 05:00:00 4,6 3,2 14 8 18 10 SW 1017,2 20 0,0
30.09.2020 04:00:00 5,0 3,8 11 6 18 10 SSW 1017,4 20 0,0
30.09.2020 03:00:00 3,6 3,0 14 8 14 8 SSW 1017,8 20 0,0
30.09.2020 02:00:00 3,5 2,8 11 6 14 8 SW 1018,2 20 0,0
30.09.2020 01:00:00 2,8 2,2 11 6 14 8 SW 1018,6 19 0,0
30.09.2020 00:00:00 4,3 3,6 7 4 18 10 SE 1018,4 20 0,0
29.09.2020 23:00:00 5,0 3,9 7 4 14 8 SSW 1018,3 20 0,0
29.09.2020 22:00:00 6,9 5,6 4 2 14 8 SE 1018,0 20 0,0
29.09.2020 21:00:00 5,3 4,5 11 6 14 8 SW 1018,6 20 0,0
29.09.2020 20:00:00 6,1 5,0 7 4 18 10 SW 1018,4 20 0,0
29.09.2020 19:00:00 5,4 4,6 11 6 14 8 SW 1017,8 20 0,0
29.09.2020 18:00:00 7,4 5,8 7 4 11 6 W 1017,2 20 0,0
29.09.2020 17:00:00 8,9 6,2 7 4 11 6 W 1016,4 20 0,0
29.09.2020 16:00:00 9,4 6,1 7 4 14 8 NW 1016,3 20 0,0
29.09.2020 15:00:00 9,7 6,0 7 4 14 8 NW 1015,9 20 0,0
29.09.2020 14:00:00 10,2 6,1 4 2 18 10 N 1015,8 20 0,0
29.09.2020 13:00:00 9,9 6,2 14 8 22 12 ENE 1015,6 20 0,0
29.09.2020 12:00:00 9,3 6,2 14 8 22 12 E 1015,3 20 0,0
29.09.2020 11:00:00 9,0 6,2 11 6 18 10 E 1015,1 20 0,0
29.09.2020 10:00:00 7,4 6,0 4 2 11 6 SSW 1015,4 20 0,0
29.09.2020 09:00:00 4,8 4,3 11 6 11 6 SW 1015,5 20 0,0
29.09.2020 08:00:00 2,7 2,4 14 8 14 8 SW 1015,8 19 0,0
29.09.2020 07:00:00 3,0 2,8 11 6 18 10 SSW 1015,8 20 0,0
29.09.2020 06:00:00 2,7 2,5 14 8 18 10 SW 1015,9 16 0,0
29.09.2020 05:00:00 1,4 1,1 11 6 14 8 SSW 1016,3 12 0,0
29.09.2020 04:00:00 2,4 2,2 11 6 18 10 SSW 1016,6 12 0,0
29.09.2020 03:00:00 2,2 2,0 14 8 18 10 SW 1016,9 0,1 0,0
29.09.2020 02:00:00 3,9 3,6 7 4 14 8 SSW 1016,8 18 0,0
29.09.2020 01:00:00 3,4 2,8 11 6 14 8 SW 1017,0 20 0,0
29.09.2020 00:00:00 4,9 4,2 4 2 14 8 SSW 1016,8 20 0,0
28.09.2020 23:00:00 5,2 4,2 11 6 - - SW 1017,0 20 0,0
28.09.2020 22:00:00 5,9 4,4 4 2 14 8 SSE 1017,1 20 0,0
28.09.2020 21:00:00 4,6 3,2 14 8 14 8 SW 1017,0 20 0,0
28.09.2020 20:00:00 4,8 3,5 11 6 14 8 SW 1017,4 20 0,0
28.09.2020 19:00:00 5,4 3,9 7 4 14 8 SW 1017,1 20 0,0
28.09.2020 18:00:00 7,9 4,7 4 2 11 6 WSW 1016,5 20 0,0
28.09.2020 17:00:00 8,0 4,8 4 2 7 4 W 1016,6 20 0,0
28.09.2020 16:00:00 7,9 4,6 4 2 14 8 W 1016,7 20 0,0
28.09.2020 15:00:00 7,7 4,6 7 4 11 6 NW 1016,8 20 0,0
28.09.2020 14:00:00 9,1 4,3 4 2 14 8 NW 1016,7 20 0,0
28.09.2020 13:00:00 8,0 4,3 7 4 14 8 ENE 1016,9 20 0,0
28.09.2020 12:00:00 7,3 4,0 4 2 11 6 NE 1017,4 20 0,0
28.09.2020 11:00:00 6,3 3,1 4 2 7 4 WSW 1018,0 20 0,0
28.09.2020 10:00:00 5,4 2,9 4 2 7 4 SSW 1018,1 20 0,0
28.09.2020 09:00:00 3,9 2,3 0 0 7 4 N 1018,3 20 0,0
28.09.2020 08:00:00 1,6 0,7 7 4 14 8 SSW 1018,9 20 0,0
28.09.2020 07:00:00 0,5 -0,4 11 6 18 10 SSW 1018,8 20 0,0
28.09.2020 06:00:00 2,7 1,7 7 4 22 12 SE 1018,5 20 0,0
28.09.2020 05:00:00 0,2 -1,1 7 4 14 8 SW 1019,3 20 0,0
28.09.2020 04:00:00 0,7 -2,4 7 4 18 10 S 1019,7 20 0,0
28.09.2020 03:00:00 1,1 -3,3 7 4 14 8 SSW 1020,3 20 0,0
28.09.2020 02:00:00 -0,8 -3,8 11 6 18 10 SSW 1021,1 20 0,0
28.09.2020 01:00:00 0,8 -3,6 11 6 14 8 SW 1021,8 20 0,0
28.09.2020 00:00:00 2,0 -3,4 11 6 14 8 SSW 1022,4 20 0,0
27.09.2020 23:00:00 2,2 -3,8 7 4 14 8 SE 1023,0 20 0,0
27.09.2020 22:00:00 0,3 -4,3 11 6 18 10 SW 1023,4 20 0,0
27.09.2020 21:00:00 0,6 -4,8 11 6 22 12 SSW 1023,9 20 0,0
27.09.2020 20:00:00 -0,4 -4,2 14 8 14 8 SW 1024,4 20 0,0
27.09.2020 19:00:00 1,5 -3,9 11 6 14 8 SW 1024,7 20 0,0
27.09.2020 18:00:00 3,7 -3,4 11 6 25 14 SSW 1024,6 20 0,0
27.09.2020 17:00:00 5,1 -3,7 11 6 32 18 E 1024,7 20 0,0
27.09.2020 16:00:00 5,2 -2,8 11 6 36 19 E 1025,2 20 0,0
27.09.2020 15:00:00 5,2 -2,6 18 10 40 21 E 1025,8 20 0,0
27.09.2020 14:00:00 5,2 -2,3 14 8 32 18 E 1026,3 20 0,0
27.09.2020 13:00:00 4,9 -3,1 14 8 29 16 E 1026,7 20 0,0
27.09.2020 12:00:00 4,5 -3,8 7 4 18 10 ENE 1027,4 20 0,0
27.09.2020 11:00:00 3,5 -4,8 4 2 11 6 NNE 1028,0 20 0,0
27.09.2020 10:00:00 2,2 -4,5 7 4 14 8 S 1028,9 20 0,0
27.09.2020 09:00:00 -0,5 -5,7 11 6 18 10 SSW 1029,0 20 0,0
27.09.2020 08:00:00 -2,0 -6,2 14 8 18 10 SSW 1029,2 20 0,0
27.09.2020 07:00:00 -2,6 -6,1 14 8 18 10 SSW 1028,9 20 0,0
27.09.2020 06:00:00 -2,2 -6,1 14 8 18 10 SSW 1028,8 20 0,0
27.09.2020 05:00:00 -2,8 -5,9 11 6 22 12 SSW 1028,6 20 0,0
27.09.2020 04:00:00 -1,7 -5,3 14 8 25 14 SSW 1028,5 20 0,0
27.09.2020 03:00:00 -2,2 -5,3 18 10 22 12 SSW 1028,6 20 0,0
27.09.2020 02:00:00 -1,5 -5,0 14 8 22 12 SSW 1028,3 20 0,0
27.09.2020 01:00:00 -1,6 -4,5 14 8 22 12 SW 1028,2 20 0,0
27.09.2020 00:00:00 -0,9 -4,3 14 8 25 14 SSW 1027,4 20 0,0
26.09.2020 23:00:00 -0,3 -3,7 18 10 25 14 SSW 1026,6 20 0,0
26.09.2020 22:00:00 -0,3 -3,5 14 8 18 10 SSW 1026,1 20 0,0
26.09.2020 21:00:00 -0,8 -3,4 7 4 14 8 SSW 1026,1 20 0,0
26.09.2020 20:00:00 0,2 -3,3 7 4 11 6 WSW 1025,7 20 0,0
26.09.2020 19:00:00 1,3 -3,1 7 4 11 6 SW 1024,6 20 0,0
26.09.2020 18:00:00 3,0 -3,4 7 4 14 8 W 1023,3 20 0,0
26.09.2020 17:00:00 4,2 -3,0 7 4 22 12 NW 1022,6 20 0,0
26.09.2020 16:00:00 4,5 -1,1 14 8 32 18 NNW 1022,4 20 0,0
26.09.2020 15:00:00 4,5 -1,3 11 6 25 14 NNW 1022,1 20 0,0
26.09.2020 14:00:00 4,5 -2,9 11 6 18 10 WNW 1021,8 20 0,0
26.09.2020 13:00:00 4,9 0,7 11 6 22 12 NW 1021,3 20 0,0
26.09.2020 12:00:00 3,8 0,0 11 6 25 14 NNW 1021,1 20 0,0
26.09.2020 11:00:00 3,6 0,5 11 6 25 14 NNW 1020,5 20 0,0
26.09.2020 10:00:00 3,6 -0,5 7 4 18 10 NNW 1019,9 20 0,0
26.09.2020 09:00:00 3,5 -0,6 4 2 11 6 E 1019,5 20 0,0
26.09.2020 08:00:00 3,0 -0,4 4 2 14 8 SW 1018,8 20 0,0
26.09.2020 07:00:00 3,2 -1,0 7 4 25 14 WNW 1017,9 20 0,0
26.09.2020 06:00:00 3,1 -0,4 4 2 29 16 WNW 1017,1 20 0,0
26.09.2020 05:00:00 2,9 0,7 11 6 36 19 NNW 1016,7 20 0,0
26.09.2020 04:00:00 3,0 0,3 7 4 18 10 S 1016,0 20 0,0
26.09.2020 03:00:00 3,4 -0,5 4 2 11 6 S 1015,5 20 0,0
26.09.2020 02:00:00 3,7 -0,1 7 4 14 8 SW 1015,0 20 0,0
26.09.2020 01:00:00 3,8 0,7 4 2 14 8 SW 1014,3 20 0,0
26.09.2020 00:00:00 3,4 0,8 7 4 18 10 WNW 1013,1 20 0,0
25.09.2020 23:00:00 4,0 0,1 7 4 36 19 SW 1011,8 20 0,0
25.09.2020 22:00:00 4,4 0,2 22 12 40 21 W 1010,4 20 0,0
25.09.2020 21:00:00 4,9 0,0 29 16 54 29 W 1009,1 20 0,0
25.09.2020 20:00:00 5,5 0,8 29 16 61 33 W 1007,4 20 0,0
25.09.2020 19:00:00 5,8 0,7 40 21 72 39 W 1005,2 20 0,0
25.09.2020 18:00:00 6,3 1,2 40 21 72 39 WNW 1001,8 20 0,0
25.09.2020 17:00:00 8,4 3,2 18 10 25 14 WSW 998,6 20 0,0
25.09.2020 16:00:00 6,8 3,9 7 4 18 10 NNE 997,5 20 0,0
25.09.2020 15:00:00 7,5 3,5 11 6 29 16 WNW 996,1 20 0,0
25.09.2020 14:00:00 9,2 3,6 11 6 25 14 W 994,4 20 0,0
25.09.2020 13:00:00 5,2 2,9 7 4 14 8 ESE 993,7 20 0,0
25.09.2020 12:00:00 4,6 2,0 11 6 14 8 S 992,7 20 0,0
25.09.2020 11:00:00 4,1 0,9 7 4 11 6 S 992,4 20 0,0
25.09.2020 10:00:00 3,5 0,9 7 4 14 8 SSW 992,8 20 0,0
25.09.2020 09:00:00 2,5 1,2 11 6 14 8 SSW 993,7 20 0,0
25.09.2020 08:00:00 2,3 0,9 4 2 18 10 NNW 994,0 20 0,0
25.09.2020 07:00:00 1,0 -0,5 7 4 25 14 S 994,7 20 0,0
25.09.2020 06:00:00 2,1 0,1 7 4 29 16 ENE 995,2 20 0,0
25.09.2020 05:00:00 2,3 0,0 18 10 50 27 ESE 995,5 20 0,0
25.09.2020 04:00:00 1,8 0,1 25 14 54 29 ENE 996,0 20 0,0
25.09.2020 03:00:00 1,9 -0,6 18 10 58 31 E 997,0 20 0,0
25.09.2020 02:00:00 2,2 -0,7 40 21 58 31 ESE 997,9 20 0,0
25.09.2020 01:00:00 1,0 0,2 29 16 50 27 ENE 999,9 20 0,1
25.09.2020 00:00:00 0,6 0,0 22 12 43 23 E 1001,2 6 0,3
24.09.2020 23:00:00 0,3 -0,1 18 10 29 16 E 1002,2 5 0,8
24.09.2020 22:00:00 0,2 -0,2 18 10 36 19 E 1003,3 2,8 0,8
24.09.2020 21:00:00 0,5 -0,1 22 12 40 21 E 1004,3 6 0,0
24.09.2020 20:00:00 2,6 -0,9 29 16 43 23 E 1004,2 20 0,0
24.09.2020 19:00:00 4,4 -3,5 7 4 43 23 ESE 1003,9 20 0,0
24.09.2020 18:00:00 4,3 -2,9 22 12 32 18 ENE 1004,1 20 0,0
24.09.2020 17:00:00 4,2 -3,0 7 4 11 6 E 1005,7 20 0,0
24.09.2020 16:00:00 4,7 -2,0 7 4 11 6 NE 1006,3 20 0,0
24.09.2020 15:00:00 5,0 -2,0 7 4 14 8 NE 1006,6 20 0,0
24.09.2020 14:00:00 5,4 -1,8 7 4 22 12 NNE 1006,2 20 0,0
24.09.2020 13:00:00 6,0 -1,4 7 4 29 16 NNW 1006,1 20 0,0
24.09.2020 12:00:00 6,1 -4,7 11 6 22 12 W 1006,1 20 0,0
24.09.2020 11:00:00 - - - - - - - - - -
24.09.2020 10:00:00 - - - - - - - - - -
24.09.2020 09:00:00 - - - - - - - - - -
24.09.2020 08:00:00 2,5 -2,6 11 6 29 16 SW 1004,0 20 0,0
24.09.2020 07:00:00 3,5 -4,5 22 12 54 29 W 1002,9 20 0,0
24.09.2020 06:00:00 3,8 -4,4 29 16 54 29 WNW 1002,0 20 0,0
24.09.2020 05:00:00 4,0 -2,7 22 12 43 23 WNW 1001,2 20 0,0

tt = Température de l'air
td = dewpoint
ff = Vitesse du vent
fx = gusts
dd = Direction du vent
ppp = reduced air pressure
vv = visibility
rr = Quantités de précipitations

stations d'obs. à proximité